Bagotville, Quebec

12:01 PM EDT on March 30, 2017 (GMT -0400)
Bagotville

Weather History for CYBG - April, 2013

Change the Weather History Date:

Monday, April 29, 2013

  Actual Average Record
Temperature  
Mean Temperature 54 °F -  
Max Temperature 74 °F 60 °F 74 °F (2013)
Min Temperature 35 °F 37 °F 16 °F (2016)
Degree Days  
Heating Degree Days 10    
Growing Degree Days 4 (Base 50)    
Moisture  
Dew Point 33 °F    
Average Humidity 46    
Maximum Humidity 75    
Minimum Humidity 17    
Precipitation  
Precipitation 0.00 in 0.11 in - ()
Sea Level Pressure  
Sea Level Pressure 30.15 in    
Wind  
Wind Speed 8 mph ()    
Max Wind Speed 18 mph    
Max Gust Speed -    
Visibility 15.0 miles    
Events      
Averages and records for this station are not official NWS values.
T = Trace of Precipitation, MM = Missing Value Source: Averaged Metar Reports

Daily Weather History Graph

Daily Weather History Graph

Search for Another Location

Airport or City:

Trip Planner

Search our weather history database for the weather conditions in past years. The results will help you decide how hot, cold, wet, or windy it might be!

Date:

Astronomy

Apr. 29, 2013 Rise Set
Actual Time 5:27 AM EDT 7:55 PM EDT
Civil Twilight 4:53 AM EDT 8:30 PM EDT
Nautical Twilight 4:09 AM EDT 9:14 PM EDT
Astronomical Twilight 3:19 AM EDT 10:05 PM EDT
Moon No Moon Rise 8:37 AM EDT (4/29)
Length of Visible Light 15h 37m
Length of Day
14h 27m
Waning Gibbous, 80% of the Moon is Illuminated
Apr 29
Waning Gibbous
May 2
Last Quarter
May 9
New
May 18
First Quarter
May 25
Full

Hourly Weather History & Observations

Time (EDT) Temp. Windchill Dew Point Humidity Pressure Visibility Wind Dir Wind Speed Gust Speed Precip Events Conditions
12:00 AM 44.6 °F 40.2 °F 32.0 °F 61% 30.19 in 15.0 mi East 8.1 mph - N/A   Clear
1:00 AM 42.8 °F 37.0 °F 32.0 °F 66% 30.19 in 15.0 mi East 10.4 mph - N/A   Clear
2:00 AM 43 °F - 30 °F 49% 30.19 in 15 mi ESE 4.6 mph - -  
2:00 AM 42.8 °F 41.1 °F 30.2 °F 61% 30.19 in 15.0 mi ESE 3.5 mph - N/A   Clear
3:00 AM 37.4 °F 34.9 °F 28.4 °F 70% 30.19 in 15.0 mi ESE 3.5 mph - N/A   Clear
4:00 AM 39.2 °F 35.0 °F 28.4 °F 65% 30.19 in 15.0 mi SE 5.8 mph - N/A   Partly Cloudy
5:00 AM 39.2 °F 37.0 °F 30.2 °F 70% 30.19 in 15.0 mi East 3.5 mph - N/A   Scattered Clouds
6:00 AM 37.4 °F - 30.2 °F 75% 30.19 in 25.0 mi SE 2.3 mph - N/A   Mostly Cloudy
7:00 AM 39.2 °F 33.6 °F 32.0 °F 75% 30.20 in 25.0 mi East 8.1 mph - N/A   Scattered Clouds
8:00 AM 45 °F - 33 °F 52% 30.20 in 25 mi East 9.2 mph - -   Clear
8:00 AM 44.6 °F 39.2 °F 33.8 °F 66% 30.20 in 25.0 mi East 10.4 mph - N/A   Mostly Cloudy
9:00 AM 50.0 °F - 32.0 °F 50% 30.18 in 25.0 mi East 15.0 mph - N/A   Mostly Cloudy
10:00 AM 55.4 °F - 32.0 °F 41% 30.16 in 25.0 mi East 18.4 mph - N/A   Mostly Cloudy
11:00 AM 59.0 °F - 33.8 °F 39% 30.14 in 25.0 mi East 18.4 mph - N/A   Mostly Cloudy
12:00 PM 64.4 °F - 35.6 °F 34% 30.12 in 25.0 mi East 16.1 mph - N/A   Mostly Cloudy
1:00 PM 66.2 °F - 35.6 °F 32% 30.11 in 25.0 mi East 13.8 mph - N/A   Mostly Cloudy
2:00 PM 69 °F - 35 °F 17% 30.09 in 25 mi East 10.4 mph - -   Partly Cloudy
2:00 PM 68.0 °F - 33.8 °F 28% 30.09 in 25.0 mi East 11.5 mph - N/A   Mostly Cloudy
3:00 PM 68.0 °F - 33.8 °F 28% 30.09 in 25.0 mi East 5.8 mph - N/A   Mostly Cloudy
4:00 PM 73.4 °F - 30.2 °F 20% 30.07 in 25.0 mi South 10.4 mph - N/A   Mostly Cloudy
5:00 PM 73.4 °F - 32.0 °F 22% 30.07 in 25.0 mi South 16.1 mph - N/A   Mostly Cloudy
6:00 PM 71.6 °F - 32.0 °F 23% 30.08 in 25.0 mi South 15.0 mph - N/A   Mostly Cloudy
7:00 PM 68.0 °F - 32.0 °F 26% 30.11 in 25.0 mi South 10.4 mph - N/A   Scattered Clouds
8:00 PM 60 °F - 40 °F 36% 30.13 in 25 mi East 10.4 mph - -   Partly Cloudy
8:00 PM 60.8 °F - 41.0 °F 48% 30.13 in 25.0 mi East 10.4 mph - N/A   Mostly Cloudy
9:00 PM 57.2 °F - 33.8 °F 41% 30.15 in 15.0 mi East 12.7 mph - N/A   Scattered Clouds
10:00 PM 53.6 °F - 32.0 °F 44% 30.16 in 15.0 mi ESE 9.2 mph - N/A   Partly Cloudy
11:00 PM 53.6 °F - 33.8 °F 47% 30.17 in 15.0 mi ESE 10.4 mph - N/A   Mostly Cloudy